sat.trackr.live / text

‹ back to catalog

STARLINK-1460

NORAD 45676 · 2020-035V

PAYLOAD ACTIVE UNKNOWN

§ Identity

Operator
Country
US
Launch date
2020-06-04
Launch site
AFETR
Launch vehicle
Mass (kg)
RCS (m²)

Purposes: comms

External: N2YO · Heavens-Above · Gunter

§ Orbital elements

Epoch: 2026-09-19T22:54:09.043776Z

Period
93.25 min
Inclination
53.1514°
Eccentricity
0.0003005
Mean motion
15.44243873 rev/d
Perigee alt
431.6 km
Apogee alt
435.6 km
Semi-major
6,811.7 km
B*
9.5269e-4
RAAN
234.5085°
Arg perigee
63.9642°
Mean anomaly
296.1674°
Rev number
34,857

§ Raw data

STARLINK-14601 45676U 20035V   26262.95427134  .00044312  00000+0  95269-3 0  99982 45676  53.1514 234.5085 0003005  63.9642 296.1674 15.44243873348577

JSON: /api/v1/satellites/45676 · /tle

For live sub-satellite position, see the globe view (requires WebGL).

§ Visibility from observer

Set your observer location to see the next 7 days of passes ≥ 10°. The values pass through the URL so the page stays shareable.

No JS? Fill the form by hand. The geolocation button needs JavaScript.